QPF
0.10 0.10 0.12 0.08 0.05 0.04 0.05 0.05 0.05 0.06 0.06 0.07 0.06 0.06 0.06 0.06 0.07 0.08 0.08 0.09 0.10 0.09 0.09 0.11 0.11 0.09 0.06 0.06 0.07 0.06 0.04 0.04 0.04 0.06 0.06 0.05 0.05 0.05 0.04 0.04 0.04 0.03 0.04
0.05 0.07 0.09 0.05 0.03 0.04 0.05 0.04 0.04 0.04 0.05 0.07 0.08 0.06 0.05 0.05 0.06 0.09 0.08 0.08 0.09 0.08 0.08 0.10 0.12 0.11 0.08 0.07 0.07 0.06 0.05 0.06 0.06 0.06 0.06 0.05 0.06 0.06 0.05 0.04 0.03 0.03 0.05
0.02 0.04 0.04 0.03 0.04 0.07 0.08 0.05 0.04 0.04 0.05 0.06 0.06 0.04 0.04 0.04 0.06 0.10 0.09 0.09 0.09 0.09 0.09 0.09 0.10 0.10 0.07 0.07 0.07 0.07 0.06 0.07 0.07 0.06 0.04 0.03 0.05 0.06 0.05 0.04 0.04 0.04 0.05
0.01 0.01 0.02 0.03 0.08 0.16 0.13 0.08 0.05 0.05 0.05 0.06 0.04 0.03 0.03 0.03 0.06 0.09 0.08 0.09 0.09 0.10 0.09 0.08 0.07 0.08 0.07 0.07 0.08 0.07 0.07 0.07 0.06 0.04 0.02 0.02 0.03 0.06 0.06 0.04 0.05 0.06 0.09
0.02 0.01 0.02 0.04 0.10 0.17 0.16 0.11 0.08 0.07 0.07 0.06 0.05 0.03 0.03 0.05 0.06 0.07 0.07 0.08 0.08 0.09 0.08 0.07 0.07 0.08 0.08 0.08 0.09 0.08 0.07 0.06 0.06 0.04 0.02 0.02 0.03 0.07 0.07 0.06 0.08 0.10 0.16
0.01 0.01 0.03 0.05 0.07 0.11 0.13 0.11 0.10 0.09 0.07 0.06 0.07 0.05 0.05 0.06 0.08 0.08 0.08 0.08 0.07 0.08 0.08 0.07 0.07 0.09 0.09 0.09 0.09 0.08 0.07 0.06 0.05 0.04 0.02 0.03 0.04 0.06 0.08 0.08 0.10 0.13 0.22
0.02 0.01 0.03 0.05 0.06 0.08 0.10 0.09 0.10 0.10 0.07 0.05 0.07 0.08 0.07 0.07 0.08 0.09 0.09 0.09 0.08 0.07 0.07 0.08 0.09 0.11 0.10 0.08 0.08 0.07 0.07 0.08 0.05 0.04 0.02 0.03 0.03 0.06 0.08 0.07 0.11 0.18 0.30
0.02 0.01 0.02 0.04 0.05 0.07 0.09 0.09 0.08 0.09 0.07 0.05 0.06 0.08 0.06 0.07 0.07 0.08 0.07 0.06 0.05 0.06 0.08 0.10 0.10 0.08 0.06 0.05 0.05 0.06 0.07 0.06 0.04 0.04 0.04 0.03 0.06 0.06 0.08 0.09 0.17 0.25 0.32
0.01 0.02 0.02 0.02 0.04 0.06 0.07 0.08 0.08 0.09 0.08 0.06 0.05 0.06 0.06 0.08 0.08 0.07 0.06 0.05 0.05 0.07 0.13 0.16 0.10 0.05 0.04 0.05 0.07 0.08 0.08 0.07 0.04 0.03 0.04 0.03 0.09 0.08 0.11 0.15 0.20 0.23 0.22
0.02 0.02 0.02 0.02 0.02 0.03 0.04 0.05 0.07 0.08 0.07 0.05 0.06 0.07 0.08 0.09 0.07 0.05 0.04 0.04 0.05 0.11 0.16 0.12 0.07 0.07 0.08 0.09 0.10 0.09 0.09 0.07 0.04 0.03 0.03 0.03 0.09 0.10 0.08 0.09 0.12 0.14 0.12
0.04 0.04 0.03 0.03 0.02 0.03 0.04 0.05 0.06 0.09 0.08 0.06 0.06 0.09 0.09 0.05 0.03 0.03 0.03 0.03 0.05 0.08 0.09 0.10 0.11 0.12 0.13 0.13 0.08 0.07 0.07 0.08 0.06 0.04 0.03 0.04 0.07 0.11 0.07 0.07 0.08 0.07 0.08
0.04 0.03 0.05 0.04 0.03 0.03 0.03 0.04 0.04 0.05 0.06 0.06 0.07 0.05 0.03 0.02 0.02 0.01 0.02 0.04 0.05 0.05 0.07 0.11 0.13 0.14 0.13 0.09 0.06 0.07 0.04 0.06 0.08 0.07 0.05 0.07 0.08 0.08 0.07 0.07 0.07 0.07 0.07
0.03 0.02 0.03 0.03 0.03 0.03 0.02 0.02 0.02 0.04 0.07 0.09 0.07 0.05 0.04 0.03 0.02 0.02 0.02 0.03 0.03 0.03 0.04 0.06 0.08 0.09 0.07 0.04 0.05 0.05 0.03 0.04 0.06 0.06 0.06 0.07 0.08 0.07 0.08 0.08 0.07 0.07 0.07
0.04 0.02 0.02 0.01 0.04 0.05 0.05 0.04 0.02 0.04 0.07 0.08 0.05 0.04 0.03 0.03 0.02 0.02 0.02 0.02 0.02 0.02 0.02 0.03 0.03 0.03 0.02 0.03 0.03 0.03 0.04 0.04 0.04 0.04 0.07 0.10 0.09 0.07 0.06 0.08 0.09 0.07 0.06
0.04 0.03 0.02 0.01 0.02 0.02 0.04 0.07 0.05 0.06 0.07 0.06 0.03 0.02 0.03 0.02 0.02 0.03 0.03 0.02 0.03 0.02 0.02 0.02 0.03 0.02 0.02 0.02 0.03 0.03 0.03 0.04 0.02 0.03 0.05 0.07 0.08 0.08 0.09 0.11 0.11 0.08 0.07
0.03 0.03 0.01 0.01 0.02 0.02 0.02 0.03 0.05 0.04 0.04 0.04 0.05 0.02 0.02 0.01 0.01 0.02 0.02 0.02 0.03 0.02 0.02 0.01 0.02 0.02 0.02 0.03 0.04 0.03 0.03 0.03 0.03 0.04 0.05 0.05 0.07 0.08 0.09 0.11 0.11 0.10 0.08
0.01 0.01 0.01 0.01 0.01 0.01 0.01 0.01 0.02 0.02 0.02 0.03 0.03 0.03 0.03 0.02 0.01 0.01 0.02 0.02 0.02 0.01 0.01 0.01 0.02 0.03 0.03 0.02 0.03 0.02 0.02 0.02 0.03 0.04 0.04 0.06 0.07 0.07 0.09 0.10 0.11 0.10 0.08
0.00 0.00 0.01 0.01 0.01 0.01 0.01 0.01 0.01 0.02 0.01 0.02 0.03 0.04 0.03 0.02 0.02 0.02 0.01 0.01 0.01 0.01 0.02 0.02 0.02 0.03 0.02 0.02 0.03 0.03 0.02 0.02 0.02 0.03 0.04 0.07 0.09 0.07 0.08 0.10 0.11 0.10 0.09
0.00 0.00 0.00 0.01 0.01 0.01 0.01 0.01 0.02 0.01 0.01 0.02 0.04 0.04 0.04 0.03 0.02 0.02 0.02 0.01 0.01 0.03 0.04 0.04 0.04 0.02 0.02 0.02 0.03 0.03 0.03 0.04 0.03 0.04 0.05 0.06 0.06 0.06 0.06 0.08 0.09 0.08 0.09
0.01 0.01 0.00 0.01 0.00 0.01 0.01 0.01 0.02 0.01 0.01 0.02 0.05 0.08 0.08 0.06 0.04 0.03 0.03 0.02 0.03 0.04 0.04 0.04 0.04 0.03 0.02 0.02 0.04 0.04 0.05 0.04 0.04 0.06 0.07 0.07 0.06 0.06 0.07 0.08 0.09 0.07 0.08
0.02 0.01 0.01 0.01 0.00 0.01 0.01 0.01 0.01 0.02 0.02 0.03 0.05 0.09 0.10 0.07 0.05 0.04 0.04 0.05 0.04 0.04 0.04 0.04 0.04 0.05 0.05 0.05 0.06 0.05 0.07 0.08 0.08 0.08 0.07 0.09 0.09 0.09 0.10 0.10 0.09 0.08 0.07
0.01 0.01 0.01 0.01 0.00 0.00 0.00 0.01 0.01 0.01 0.01 0.02 0.03 0.04 0.04 0.04 0.05 0.06 0.05 0.05 0.04 0.03 0.04 0.05 0.04 0.05 0.06 0.07 0.09 0.08 0.08 0.10 0.08 0.06 0.07 0.09 0.13 0.13 0.13 0.11 0.10 0.09 0.07
0.01 0.02 0.01 0.01 0.00 0.00 0.00 0.01 0.01 0.01 0.01 0.02 0.02 0.02 0.02 0.02 0.04 0.06 0.06 0.07 0.06 0.05 0.04 0.05 0.06 0.06 0.08 0.08 0.07 0.07 0.06 0.04 0.04 0.05 0.05 0.07 0.11 0.14 0.15 0.13 0.11 0.10 0.08
0.01 0.01 0.01 0.01 0.00 0.00 0.00 0.01 0.00 0.00 0.00 0.01 0.01 0.01 0.01 0.01 0.04 0.07 0.07 0.07 0.06 0.05 0.03 0.04 0.04 0.04 0.05 0.07 0.07 0.05 0.05 0.04 0.03 0.03 0.04 0.04 0.06 0.10 0.14 0.10 0.07 0.05 0.07
0.00 0.00 0.00 0.00 0.00 0.00 0.00 0.00 0.00 0.00 0.00 0.00 0.01 0.01 0.01 0.01 0.03 0.06 0.07 0.05 0.03 0.02 0.02 0.02 0.04 0.04 0.04 0.04 0.05 0.05 0.06 0.07 0.06 0.04 0.03 0.03 0.04 0.06 0.06 0.06 0.06 0.05 0.06
0.00 0.00 0.00 0.00 0.00 0.00 0.00 0.00 0.00 0.00 0.00 0.00 0.01 0.01 0.01 0.01 0.01 0.02 0.02 0.02 0.03 0.02 0.02 0.02 0.02 0.04 0.04 0.04 0.02 0.03 0.04 0.07 0.06 0.05 0.03 0.02 0.03 0.04 0.04 0.04 0.04 0.04 0.05
MSLP
1011.64 1011.04 1010.59 1010.33 1010.28 1010.41 1010.66 1010.94 1011.21 1011.41 1011.54 1011.64 1011.75 1011.92 1012.18 1012.53 1012.96 1013.41 1013.84 1014.21 1014.51 1014.74 1014.93 1015.11 1015.32 1015.57 1015.86 1016.17 1016.48 1016.76 1016.99 1017.19 1017.34 1017.48 1017.62 1017.79 1017.97 1018.17 1018.36 1018.54 1018.68 1018.79 1018.88
1011.73 1011.22 1010.84 1010.63 1010.62 1010.76 1011.00 1011.27 1011.51 1011.70 1011.84 1011.96 1012.09 1012.30 1012.60 1012.98 1013.42 1013.87 1014.29 1014.65 1014.93 1015.14 1015.31 1015.48 1015.68 1015.92 1016.20 1016.50 1016.80 1017.07 1017.29 1017.47 1017.62 1017.75 1017.89 1018.05 1018.23 1018.43 1018.62 1018.80 1018.96 1019.08 1019.18
1011.74 1011.34 1011.05 1010.91 1010.94 1011.10 1011.34 1011.60 1011.84 1012.02 1012.16 1012.29 1012.45 1012.68 1012.99 1013.37 1013.79 1014.23 1014.62 1014.95 1015.20 1015.40 1015.58 1015.75 1015.96 1016.21 1016.50 1016.81 1017.10 1017.37 1017.59 1017.77 1017.91 1018.04 1018.18 1018.33 1018.51 1018.70 1018.90 1019.08 1019.24 1019.39 1019.51
1011.69 1011.41 1011.23 1011.17 1011.26 1011.45 1011.70 1011.96 1012.19 1012.38 1012.53 1012.67 1012.84 1013.08 1013.37 1013.73 1014.12 1014.51 1014.85 1015.15 1015.39 1015.58 1015.77 1015.97 1016.20 1016.48 1016.79 1017.11 1017.41 1017.68 1017.90 1018.07 1018.22 1018.34 1018.48 1018.63 1018.80 1018.99 1019.18 1019.37 1019.54 1019.70 1019.84
1011.64 1011.48 1011.40 1011.44 1011.58 1011.81 1012.08 1012.34 1012.58 1012.77 1012.93 1013.09 1013.27 1013.50 1013.78 1014.09 1014.43 1014.76 1015.06 1015.32 1015.53 1015.74 1015.95 1016.18 1016.45 1016.76 1017.08 1017.41 1017.72 1017.98 1018.19 1018.37 1018.51 1018.65 1018.78 1018.93 1019.10 1019.28 1019.47 1019.66 1019.84 1020.01 1020.17
1011.63 1011.58 1011.60 1011.71 1011.91 1012.17 1012.45 1012.72 1012.97 1013.17 1013.36 1013.53 1013.73 1013.95 1014.20 1014.48 1014.76 1015.03 1015.28 1015.51 1015.72 1015.93 1016.16 1016.42 1016.72 1017.05 1017.38 1017.71 1018.00 1018.24 1018.45 1018.62 1018.76 1018.90 1019.04 1019.20 1019.37 1019.55 1019.74 1019.92 1020.11 1020.29 1020.47
1011.73 1011.75 1011.84 1012.01 1012.24 1012.52 1012.81 1013.09 1013.34 1013.56 1013.77 1013.97 1014.18 1014.41 1014.65 1014.90 1015.14 1015.36 1015.56 1015.76 1015.96 1016.17 1016.42 1016.71 1017.02 1017.35 1017.67 1017.97 1018.23 1018.45 1018.63 1018.78 1018.93 1019.08 1019.24 1019.41 1019.59 1019.77 1019.95 1020.14 1020.32 1020.51 1020.71
1011.93 1012.00 1012.13 1012.33 1012.58 1012.85 1013.13 1013.40 1013.66 1013.90 1014.14 1014.38 1014.62 1014.86 1015.11 1015.34 1015.54 1015.73 1015.90 1016.07 1016.26 1016.47 1016.72 1017.01 1017.32 1017.62 1017.91 1018.17 1018.38 1018.56 1018.71 1018.85 1019.00 1019.16 1019.34 1019.53 1019.72 1019.91 1020.10 1020.28 1020.46 1020.65 1020.85
1012.20 1012.30 1012.45 1012.66 1012.90 1013.15 1013.40 1013.66 1013.91 1014.16 1014.43 1014.71 1015.00 1015.28 1015.54 1015.78 1015.97 1016.14 1016.28 1016.43 1016.60 1016.80 1017.03 1017.30 1017.58 1017.85 1018.09 1018.29 1018.45 1018.58 1018.70 1018.82 1018.97 1019.14 1019.34 1019.56 1019.78 1019.98 1020.17 1020.35 1020.52 1020.71 1020.91
1012.49 1012.61 1012.77 1012.97 1013.19 1013.41 1013.63 1013.85 1014.09 1014.36 1014.66 1014.98 1015.31 1015.64 1015.93 1016.19 1016.39 1016.54 1016.67 1016.80 1016.94 1017.12 1017.33 1017.57 1017.81 1018.03 1018.21 1018.35 1018.46 1018.54 1018.62 1018.73 1018.88 1019.07 1019.29 1019.53 1019.77 1019.99 1020.19 1020.36 1020.53 1020.70 1020.89
1012.73 1012.88 1013.06 1013.26 1013.45 1013.64 1013.82 1014.01 1014.23 1014.50 1014.82 1015.18 1015.56 1015.93 1016.27 1016.55 1016.76 1016.92 1017.04 1017.15 1017.27 1017.42 1017.60 1017.80 1018.00 1018.17 1018.30 1018.39 1018.45 1018.49 1018.55 1018.64 1018.79 1018.99 1019.23 1019.49 1019.75 1019.98 1020.18 1020.36 1020.51 1020.67 1020.84
1012.88 1013.06 1013.28 1013.48 1013.66 1013.83 1013.97 1014.14 1014.34 1014.61 1014.94 1015.33 1015.75 1016.16 1016.53 1016.84 1017.08 1017.24 1017.36 1017.46 1017.57 1017.70 1017.85 1018.02 1018.18 1018.31 1018.41 1018.46 1018.49 1018.51 1018.54 1018.62 1018.76 1018.96 1019.20 1019.47 1019.73 1019.97 1020.18 1020.35 1020.50 1020.64 1020.80
1012.90 1013.15 1013.41 1013.63 1013.82 1013.97 1014.10 1014.24 1014.43 1014.70 1015.03 1015.44 1015.88 1016.32 1016.72 1017.05 1017.31 1017.49 1017.62 1017.72 1017.83 1017.95 1018.08 1018.23 1018.38 1018.49 1018.57 1018.60 1018.61 1018.62 1018.64 1018.70 1018.83 1019.01 1019.23 1019.49 1019.74 1019.98 1020.19 1020.36 1020.50 1020.64 1020.78
1012.82 1013.13 1013.44 1013.70 1013.90 1014.05 1014.18 1014.32 1014.50 1014.76 1015.09 1015.50 1015.95 1016.40 1016.82 1017.17 1017.45 1017.65 1017.80 1017.92 1018.03 1018.16 1018.30 1018.45 1018.60 1018.71 1018.79 1018.84 1018.84 1018.84 1018.85 1018.90 1018.99 1019.14 1019.33 1019.55 1019.78 1020.00 1020.19 1020.36 1020.51 1020.65 1020.78
1012.67 1013.03 1013.38 1013.67 1013.89 1014.06 1014.20 1014.34 1014.53 1014.78 1015.11 1015.51 1015.95 1016.39 1016.81 1017.17 1017.47 1017.71 1017.89 1018.04 1018.18 1018.33 1018.50 1018.66 1018.83 1018.97 1019.06 1019.12 1019.15 1019.15 1019.15 1019.16 1019.22 1019.31 1019.45 1019.61 1019.79 1019.98 1020.16 1020.34 1020.49 1020.63 1020.77
1012.50 1012.88 1013.23 1013.54 1013.78 1013.97 1014.13 1014.29 1014.49 1014.74 1015.07 1015.44 1015.85 1016.28 1016.68 1017.05 1017.36 1017.62 1017.84 1018.04 1018.23 1018.42 1018.63 1018.83 1019.03 1019.19 1019.33 1019.41 1019.46 1019.47 1019.46 1019.45 1019.45 1019.48 1019.54 1019.63 1019.76 1019.90 1020.06 1020.22 1020.39 1020.55 1020.70
1012.36 1012.71 1013.04 1013.33 1013.58 1013.78 1013.97 1014.17 1014.39 1014.64 1014.95 1015.29 1015.67 1016.06 1016.44 1016.79 1017.11 1017.40 1017.66 1017.91 1018.16 1018.40 1018.65 1018.90 1019.13 1019.34 1019.51 1019.63 1019.70 1019.72 1019.71 1019.67 1019.62 1019.58 1019.56 1019.57 1019.62 1019.71 1019.84 1019.99 1020.17 1020.35 1020.52
1012.26 1012.53 1012.81 1013.06 1013.30 1013.52 1013.74 1013.97 1014.21 1014.48 1014.77 1015.08 1015.41 1015.74 1016.08 1016.41 1016.72 1017.03 1017.34 1017.64 1017.94 1018.24 1018.54 1018.83 1019.11 1019.35 1019.55 1019.71 1019.81 1019.85 1019.84 1019.78 1019.70 1019.59 1019.50 1019.42 1019.39 1019.41 1019.49 1019.62 1019.80 1019.99 1020.19
1012.20 1012.38 1012.57 1012.77 1012.99 1013.22 1013.47 1013.73 1014.01 1014.28 1014.55 1014.83 1015.09 1015.37 1015.64 1015.93 1016.23 1016.55 1016.88 1017.23 1017.58 1017.94 1018.28 1018.62 1018.93 1019.21 1019.44 1019.63 1019.77 1019.84 1019.84 1019.78 1019.67 1019.52 1019.35 1019.20 1019.08 1019.02 1019.04 1019.13 1019.28 1019.48 1019.69
1012.14 1012.23 1012.34 1012.49 1012.69 1012.93 1013.22 1013.52 1013.82 1014.10 1014.35 1014.58 1014.78 1014.97 1015.18 1015.41 1015.68 1016.00 1016.35 1016.73 1017.12 1017.52 1017.91 1018.27 1018.61 1018.91 1019.18 1019.41 1019.58 1019.68 1019.72 1019.67 1019.56 1019.38 1019.16 1018.94 1018.74 1018.60 1018.53 1018.55 1018.66 1018.83 1019.04
1012.07 1012.09 1012.15 1012.26 1012.45 1012.71 1013.02 1013.36 1013.68 1013.97 1014.20 1014.37 1014.50 1014.62 1014.75 1014.91 1015.14 1015.44 1015.79 1016.19 1016.61 1017.04 1017.45 1017.84 1018.20 1018.53 1018.82 1019.08 1019.29 1019.44 1019.52 1019.51 1019.41 1019.23 1018.98 1018.70 1018.42 1018.19 1018.03 1017.97 1017.99 1018.10 1018.27
1011.93 1011.94 1011.98 1012.09 1012.29 1012.58 1012.92 1013.29 1013.63 1013.92 1014.12 1014.24 1014.30 1014.34 1014.38 1014.48 1014.66 1014.93 1015.27 1015.68 1016.11 1016.56 1016.98 1017.39 1017.75 1018.09 1018.41 1018.70 1018.95 1019.15 1019.28 1019.33 1019.27 1019.10 1018.84 1018.52 1018.18 1017.86 1017.59 1017.41 1017.34 1017.36 1017.46
1011.71 1011.76 1011.84 1011.98 1012.22 1012.54 1012.91 1013.30 1013.66 1013.94 1014.11 1014.18 1014.18 1014.14 1014.11 1014.15 1014.28 1014.51 1014.84 1015.23 1015.67 1016.12 1016.55 1016.95 1017.32 1017.66 1017.99 1018.30 1018.59 1018.84 1019.03 1019.14 1019.13 1019.00 1018.75 1018.41 1018.02 1017.62 1017.25 1016.95 1016.76 1016.66 1016.66
1011.38 1011.53 1011.69 1011.90 1012.18 1012.54 1012.95 1013.35 1013.72 1013.98 1014.13 1014.16 1014.10 1014.01 1013.92 1013.91 1013.99 1014.19 1014.50 1014.88 1015.31 1015.75 1016.17 1016.56 1016.91 1017.25 1017.58 1017.90 1018.22 1018.51 1018.76 1018.92 1018.97 1018.89 1018.67 1018.34 1017.92 1017.46 1017.01 1016.60 1016.28 1016.07 1015.95
1010.94 1011.23 1011.49 1011.78 1012.12 1012.52 1012.95 1013.37 1013.73 1013.99 1014.12 1014.12 1014.03 1013.90 1013.78 1013.73 1013.79 1013.96 1014.25 1014.61 1015.02 1015.44 1015.84 1016.20 1016.53 1016.85 1017.16 1017.48 1017.81 1018.13 1018.42 1018.64 1018.75 1018.73 1018.56 1018.25 1017.84 1017.35 1016.84 1016.34 1015.92 1015.59 1015.37
1010.40 1010.82 1011.20 1011.58 1011.97 1012.41 1012.86 1013.28 1013.64 1013.90 1014.02 1014.01 1013.92 1013.78 1013.66 1013.60 1013.64 1013.79 1014.06 1014.40 1014.78 1015.16 1015.53 1015.85 1016.15 1016.42 1016.71 1017.01 1017.33 1017.66 1017.97 1018.24 1018.41 1018.44 1018.34 1018.08 1017.69 1017.21 1016.68 1016.15 1015.66 1015.24 1014.92
Thickness
5782 5786 5788 5790 5791 5792 5793 5794 5795 5795 5795 5795 5794 5793 5792 5791 5790 5789 5788 5787 5786 5785 5784 5782 5780 5779 5778 5777 5776 5776 5774 5773 5771 5770 5768 5766 5765 5764 5762 5760 5758 5757 5756
5786 5786 5787 5789 5791 5792 5792 5793 5794 5794 5794 5794 5793 5792 5791 5790 5789 5788 5787 5786 5785 5784 5782 5781 5779 5778 5777 5776 5775 5774 5773 5772 5770 5768 5767 5765 5764 5763 5761 5759 5758 5756 5754
5786 5786 5787 5788 5790 5791 5791 5792 5792 5793 5793 5793 5792 5791 5790 5788 5787 5786 5786 5784 5783 5782 5780 5779 5778 5777 5776 5775 5773 5773 5771 5770 5768 5767 5766 5764 5763 5762 5761 5759 5757 5755 5754
5786 5786 5787 5787 5788 5789 5789 5790 5791 5791 5792 5791 5790 5790 5789 5787 5786 5785 5784 5783 5782 5780 5779 5778 5777 5776 5774 5773 5771 5771 5770 5768 5766 5765 5764 5764 5763 5761 5760 5758 5756 5754 5753
5786 5786 5786 5786 5787 5788 5787 5788 5789 5789 5790 5790 5789 5788 5787 5786 5784 5783 5782 5781 5780 5779 5777 5776 5775 5774 5773 5771 5770 5768 5767 5766 5765 5764 5763 5762 5761 5760 5758 5757 5755 5753 5752
5786 5786 5785 5786 5786 5786 5786 5786 5787 5787 5788 5788 5787 5787 5786 5784 5783 5782 5781 5780 5779 5778 5776 5775 5774 5773 5771 5770 5769 5767 5766 5765 5764 5763 5762 5761 5760 5759 5757 5756 5754 5752 5751
5786 5786 5785 5785 5785 5785 5785 5785 5785 5785 5785 5785 5785 5785 5783 5782 5781 5781 5780 5779 5778 5777 5775 5774 5772 5771 5770 5769 5768 5766 5765 5764 5763 5763 5761 5760 5759 5758 5757 5755 5753 5751 5750
5787 5786 5785 5785 5784 5784 5784 5784 5784 5784 5783 5783 5783 5782 5782 5781 5780 5779 5778 5778 5777 5776 5774 5773 5771 5770 5769 5767 5766 5765 5764 5764 5762 5761 5760 5759 5758 5756 5755 5754 5752 5750 5748
5787 5786 5784 5784 5784 5783 5783 5783 5783 5783 5782 5782 5781 5781 5780 5779 5778 5778 5778 5779 5778 5775 5773 5772 5771 5770 5768 5767 5765 5764 5763 5762 5761 5759 5758 5757 5756 5755 5754 5753 5752 5749 5747
5786 5785 5784 5783 5783 5783 5782 5782 5782 5782 5781 5781 5780 5779 5778 5777 5777 5777 5777 5778 5777 5774 5773 5771 5770 5769 5767 5766 5765 5764 5762 5761 5759 5758 5757 5756 5755 5754 5753 5751 5750 5748 5746
5784 5784 5784 5783 5783 5782 5782 5781 5781 5781 5781 5780 5779 5778 5777 5776 5775 5775 5775 5775 5775 5774 5772 5771 5770 5768 5766 5765 5764 5763 5761 5760 5758 5757 5756 5755 5754 5753 5752 5750 5749 5747 5746
5782 5783 5784 5783 5783 5782 5782 5781 5780 5780 5779 5779 5778 5777 5776 5775 5774 5774 5774 5773 5773 5772 5771 5770 5769 5767 5765 5764 5762 5761 5760 5759 5758 5756 5755 5754 5754 5753 5751 5750 5748 5747 5745
5785 5784 5784 5784 5784 5783 5782 5781 5781 5780 5779 5778 5777 5776 5776 5775 5774 5773 5773 5772 5772 5771 5770 5769 5768 5766 5765 5764 5762 5760 5759 5758 5757 5756 5755 5754 5753 5752 5750 5749 5748 5746 5745
5786 5785 5785 5786 5785 5784 5783 5782 5781 5780 5779 5778 5777 5777 5776 5774 5773 5773 5772 5771 5771 5770 5769 5768 5767 5766 5764 5763 5762 5760 5759 5758 5757 5756 5755 5754 5753 5751 5750 5749 5747 5746 5745
5787 5787 5787 5787 5786 5785 5784 5783 5781 5780 5779 5779 5778 5777 5776 5775 5773 5772 5772 5771 5770 5769 5768 5767 5766 5765 5764 5763 5761 5760 5759 5758 5756 5755 5755 5754 5752 5751 5750 5749 5747 5746 5744
5789 5788 5789 5788 5788 5786 5784 5783 5782 5781 5780 5779 5778 5777 5776 5775 5774 5772 5771 5770 5769 5769 5768 5767 5766 5764 5763 5762 5760 5759 5758 5757 5756 5755 5754 5753 5752 5750 5749 5748 5748 5746 5745
5791 5791 5790 5790 5789 5787 5785 5784 5783 5782 5780 5779 5778 5777 5776 5775 5774 5773 5771 5770 5769 5769 5768 5766 5765 5763 5762 5761 5759 5758 5758 5756 5755 5754 5753 5752 5750 5749 5749 5748 5747 5746 5745
5794 5792 5792 5793 5789 5788 5787 5785 5784 5782 5781 5779 5778 5778 5777 5775 5774 5773 5771 5770 5769 5768 5767 5765 5763 5761 5759 5758 5757 5757 5756 5755 5754 5753 5752 5750 5749 5748 5748 5747 5745 5745 5744
5798 5795 5793 5792 5790 5789 5788 5786 5785 5783 5781 5780 5779 5778 5777 5775 5774 5773 5771 5770 5769 5767 5765 5764 5762 5760 5757 5756 5756 5755 5755 5754 5753 5752 5750 5749 5748 5747 5746 5745 5744 5743 5743
5800 5798 5795 5793 5791 5790 5788 5786 5784 5782 5780 5779 5778 5778 5777 5775 5774 5773 5771 5770 5768 5766 5764 5762 5760 5759 5757 5756 5755 5753 5752 5752 5752 5751 5750 5749 5747 5746 5745 5744 5743 5742 5741
5799 5798 5796 5793 5792 5791 5787 5784 5780 5778 5778 5778 5778 5778 5777 5775 5774 5773 5771 5769 5767 5764 5762 5761 5759 5757 5755 5755 5750 5746 5747 5749 5748 5749 5748 5747 5746 5745 5744 5743 5742 5741 5740
5800 5798 5797 5795 5794 5793 5791 5788 5785 5782 5780 5779 5779 5778 5777 5776 5775 5774 5771 5768 5766 5764 5761 5760 5758 5754 5753 5753 5748 5740 5736 5737 5743 5746 5745 5744 5744 5743 5742 5742 5740 5739 5738
5802 5801 5800 5797 5796 5795 5793 5790 5786 5782 5779 5777 5777 5776 5777 5776 5775 5773 5771 5769 5766 5763 5760 5759 5758 5754 5750 5750 5750 5743 5733 5729 5733 5739 5742 5742 5741 5740 5741 5740 5739 5737 5735
5806 5805 5802 5800 5798 5796 5794 5790 5785 5779 5775 5776 5776 5776 5776 5776 5775 5773 5770 5768 5766 5763 5761 5759 5758 5756 5752 5747 5747 5747 5744 5739 5731 5729 5734 5737 5738 5737 5737 5737 5736 5735 5733
5810 5807 5804 5801 5798 5797 5795 5791 5786 5782 5780 5779 5778 5776 5775 5774 5774 5772 5770 5767 5765 5763 5761 5759 5757 5755 5752 5748 5745 5743 5741 5739 5736 5729 5725 5728 5731 5733 5734 5733 5732 5731 5730
5812 5809 5805 5800 5798 5797 5794 5792 5788 5783 5780 5777 5775 5773 5772 5772 5771 5771 5769 5767 5765 5763 5760 5758 5756 5754 5751 5749 5746 5743 5740 5736 5733 5729 5724 5723 5724 5727 5729 5729 5729 5728 5727